STARLINK-6306, 57242

Orbit data source: Space-Track

STARLINK-6306, 57242 is a payload satellite owned by SpaceX/Seattle (US) in LEO that was launched on Fri, 07 Jul 2023 UTC via an FALCON 9 launch vehicle from the Air Force Western Test Range (AFWTR). Payload-class satellites include a variety of spacecraft equipped with specific instruments for various scientific and technological missions. These include communications satellites like Starlink; space stations such as the ISS; scientific satellites like the Hubble; Earth observation satellites from companies like Planet Labs, Umbra, and HawkEye 360; GPS; miniature CubeSats for education and research; and military/defense satellites.

Loading next visibility...
Identifier
57242, 2023-094AA
Orbit
LEO
Country
Flag of USUS
Related business
Manufacturer
SpaceX/Seattle
Mission
Operational Commercial Communications
Bus & Motor
STARLINK, Unknown motor
Mass
305 kg wet, ~290 kg dry
Launch date (UTC)
2023-07-07 (3 years ago)
Launch vehicle
FALCON 9
Launch site
Air Force Western Test Range (AFWTR)
Object type
Payload
Rocket body
Debris
Shape & HBR
Box + 1 Pan, 10.1 m
Radar Cross Section
11.087 m², Large (>1 m²)

Expand to show TLE details & history
Last TLE update: 2 days ago

TLE from 2 days ago
0 STARLINK-6306
1 57242U 23094AA  26171.32029339  .00000490  00000-0  27335-4 0  9993
2 57242  43.0030 160.4893 0001324 268.7647  91.3053 15.27578386162937
Epoch: 2026-06-20T07:41Z
TLE epoch observation values (Epoch: 2026-06-20T07:41:13.348Z)
Latitude
-0.00004°
Longitude
136.64703°
Altitude
482.85 km
Speed
7.626 km/s
True Right ascension
10h 41m 57s
True Declination
0° 00' 00"
Sunlit
Object was in daylight at epoch
Visualization orbit readout
Latitude
Unknown
Longitude
Unknown
Altitude
Unknown
Speed
Unknown
Apparent Right ascension
Unknown
Apparent Declination
Unknown
Sunlit
N/A
Visualization observer readout
Local Sidereal Time
21:33:36
Azimuth
Unknown
Elevation
Unknown
Doppler factor
Unknown
Orbital elements
Apogee altitude
485.907 km
Perigee altitude
484.09 km
Semi-major axis
6,863.136 km
Eccentricity
0.00013
Inclination
43.003°
RAAN
160.4893°
Arg. of periapsis
268.7647°
True anomaly
91.32047°
Mean anomaly
91.3053°
Eccentric anomaly
91.31288°
Mean motion
3.81733 °/min
Orbital period
94.31 mins
BSTAR
0.000027335
Loading maneuver chart data...
Computing Atmospheric mass density...
Loading historical data...
Loading historical data...
Loading historical data...
Loading historical data...
Loading historical data...
Loading historical data...
Loading historical data...

Documentation

Showing up to 5 results
|